Tracking 19293 objects as of 21-Nov-2018
HD Live streaming from Space Station
objects crossing your sky now

GB 1

Track GB 1 now!
10-day predictions
GB 1 is classified as:


NORAD ID: 14143
Int'l Code: 1983-056C
Perigee: 389.5 km
Apogee: 1,747.2 km
Inclination: 63.3 °
Period: 106.4 minutes
Semi major axis: 7439 km
RCS: Unknown
Launch date: June 9, 1983
Source: United States (US)
Launch site: AIR FORCE WESTERN TEST RANGE (AFWTR)
aabbcc
Your satellite tracking list
Your tracking list is empty




NASA's NSSDC Master Catalog

Two Line Element Set (TLE):
1 14143U 83056C   18106.82743836 0.00001600  00000-0  12457-3 0    04
2 14143  63.2936   2.9295 0912476  77.5028 282.4972 13.53011611    05
Source of the keplerian elements: McCants